Weather in Shchuchyn

Belarus     53˚36′15″N   24˚44′33″E
temp.,
°C
wind,
m/s
gust,
m/s
humid.,
%
clouds,
%
prec.,
mm/h
press.,
hPa
HPBL,
m
29 november, sun
sun2900:00e4596100 1.0 1020363
03:00−2˚ne369583 1.1 1020164
06:00−3˚nne369725 0.1 1020201
09:00ne489762 0.9 1020445
12:00+1˚ne479199 0.1 1020490
15:00+1˚nne468699 0.1 1020567
18:00−1˚nnw4797100 0.4 1020375
21:00−1˚nnw3697100 1.1 1020350
30 november, mon
mon3000:00−1˚nnw3597100 0.6 1020272
03:00−1˚wnw3598100 1.1 1021220
06:00−2˚wnw3597100 0.4 1021212
09:00−2˚w239898 0.8 1022128
12:00−1˚wsw349478 0.1 1023305
15:00−1˚wsw368881 0.2 1024612
18:00−1˚sw369188 0.1 1024273
21:00−2˚sw389291 0.1 1025293
1 december, tue
tue100:00−3˚sw379181 0.0 1026181
03:00−4˚ssw349043 0.0 102684
06:00−2˚s358887 0.0 1026148
09:00−4˚s359364 0.0 1027117
12:00−2˚s46867 0.0 1028325
15:00−1˚sse368423 0.0 1028617
18:00−3˚se349039 0.0 102876
21:00−4˚se369262 0.0 1030155
2 december, wed
wed200:00−4˚se359345 0.0 1030121
03:00−4˚ese239355 0.0 103071
06:00−5˚ese339226 0.0 103070
09:00−5˚e349114 0.0 102990
12:00−3˚e368649 0.0 1029247
15:00−2˚e369142 0.0 1027283
18:00−2˚ese369662 0.0 1026270
21:00−1˚e369781 0.1 1026341
3 december, thu
thu300:00−1˚ese489598 0.1 1025359
03:00−3˚ese369796 0.3 1024170
06:00−3˚ese369795 0.2 1023213
09:00−3˚se379791 0.3 1023221
12:00−1˚se579595 0.0 1023340
15:00se589397 0.1 1022508
18:00−1˚se5994100 0.1 1021612
21:00se51093100 0.1 1021489